Home   Weather   Leesburg   Past weeks

Flag for USA Past Weather in Leesburg, Virginia, USA — Yesterday and Last 2 Weeks

Now
59 °F

Fog.


Feels Like: 58 °F
Forecast: 56 / 74 °F
Wind: 8 mph from Northeast

Location: Leesburg / Godfrey

Current Time: Apr 25, 2017 at 10:29:36 pm

Latest Report: Apr 25, 2017 at 9:35 pm


Visibility: 2 mi

Pressure: 29.78 "Hg

Humidity: 100%

Dew Point: 59 °F

Location of LeesburgLocation

Past Weather in Leesburg — Graph

°F

Leesburg Temperature Yesterday

Maximum temperature yesterday: 59 °F (at 12:35 pm)
Minimum temperature yesterday: 52 °F (at 3:55 am)
Average temperature yesterday: 54 °F

High & Low Weather Summary for the Past Weeks

 TemperatureHumidityPressure
High88 °F (Apr 11, 3:15 pm)100% (Apr 16, 12:15 am)30.44 "Hg (Apr 16, 12:15 am)
Low45 °F (Apr 23, 5:55 am)24% (Apr 11, 3:55 pm)29.76 "Hg (Apr 25, 6:35 pm)
Average62 °F72%30.12 "Hg
* Reported Apr 10 8:15 pm — Apr 25 8:55 pm, Leesburg, Weather by CustomWeather, © 2017

Note: Actual official high and low records may vary slightly from our data, if they occured in-between our weather recording intervals... More about our weather records

Advertising

Leesburg Weather History for the Previous 24 Hours

Scroll right to see more
 ConditionsComfort  
Time TempWeatherWind HumidityBarometerVisibility
8:55 pm
Tue, Apr 25
59 °FFog.5 mph100%29.77 "Hg2 mi
8:15 pm59 °FFog.5 mph100%29.76 "Hg2 mi
7:55 pm59 °FFog.6 mph100%29.77 "Hg3 mi
7:35 pm59 °FFog.5 mph100%29.76 "Hg5 mi
6:55 pm59 °FFog.8 mph100%29.76 "Hg4 mi
6:35 pm59 °FFog.7 mph100%29.76 "Hg3 mi
6:15 pm59 °FFog.6 mph100%29.77 "Hg2 mi
5:55 pm59 °FFog.8 mph100%29.77 "Hg2 mi
5:35 pm59 °FLight rain. Low clouds.8 mph100%29.77 "Hg1 mi
5:15 pm59 °FDrizzle. Low clouds.9 mph100%29.78 "Hg1 mi
4:55 pm59 °FDrizzle. Low clouds.7 mph100%29.77 "Hg1 mi
4:35 pm59 °FFog.8 mph100%29.77 "Hg1 mi
4:15 pm59 °FDrizzle. Low clouds.9 mph100%29.77 "Hg2 mi
3:55 pm59 °FLight rain. Low clouds.8 mph100%29.78 "Hg2 mi
3:35 pm59 °FDrizzle. Low clouds.10 mph100%29.79 "Hg2 mi
3:15 pm59 °FDrizzle. Low clouds.8 mph100%29.79 "Hg2 mi
2:55 pm59 °FDrizzle. Low clouds.10 mph100%29.80 "Hg2 mi
2:35 pm59 °FDrizzle. Low clouds.9 mph100%29.80 "Hg2 mi
2:15 pm57 °FRain. Low clouds.9 mph100%29.81 "Hg2 mi
1:55 pm57 °FRain. Low clouds.8 mph100%29.81 "Hg2 mi
1:35 pm55 °FLight rain. Low clouds.9 mph100%29.81 "Hg4 mi
1:15 pm55 °FRain. Low clouds.10 mph100%29.82 "Hg2 mi
12:55 pm55 °FLight rain. Low clouds.15 mph100%29.83 "Hg3 mi
12:35 pm55 °FLight rain. Low clouds.13 mph100%29.83 "Hg2 mi
12:15 pm57 °FRain. Low clouds.12 mph100%29.84 "Hg2 mi
11:55 am57 °FDrizzle. Mostly cloudy.8 mph100%29.85 "Hg4 mi
11:35 am57 °FLight rain. Overcast.9 mph100%29.86 "Hg5 mi
11:15 am57 °FLight rain. Overcast.10 mph100%29.87 "Hg7 mi
10:55 am55 °FLight rain. Low clouds.7 mph100%29.88 "Hg7 mi
10:35 am55 °FLight rain. Low clouds.9 mph100%29.88 "Hg7 mi
10:15 am54 °FLow clouds.10 mph100%29.89 "Hg10 mi
9:55 am54 °FLow clouds.12 mph100%29.90 "Hg7 mi
9:35 am52 °FLow clouds.9 mph100%29.90 "Hg7 mi
9:15 am52 °FFog.9 mph100%29.91 "Hg5 mi
8:55 am52 °FLight rain. Low clouds.12 mph100%29.91 "Hg3 mi
8:35 am52 °FFog.9 mph100%29.91 "Hg2 mi
8:15 am52 °FFog.12 mph100%29.92 "Hg2 mi
7:55 am52 °FFog.9 mph100%29.92 "Hg2 mi
7:35 am52 °FFog.10 mph100%29.92 "Hg4 mi
7:15 am52 °FLow clouds.8 mph94%29.92 "Hg7 mi
6:55 am52 °FLow clouds.13 mph94%29.92 "Hg10 mi
6:35 am52 °FLow clouds.12 mph94%29.91 "Hg10 mi
6:15 am52 °FLow clouds.8 mph94%29.90 "Hg10 mi
5:55 am52 °FLow clouds.7 mph94%29.90 "Hg10 mi
5:35 am52 °FLow clouds.7 mph100%29.91 "Hg10 mi
5:15 am52 °FLow clouds.7 mph100%29.91 "Hg10 mi
4:55 am52 °FLow clouds.7 mph100%29.91 "Hg10 mi
4:35 am52 °FThundershowers. Low clouds.7 mph100%29.91 "Hg10 mi
3:55 am52 °FOvercast.8 mph100%29.93 "Hg10 mi
3:15 am52 °FLight rain. Overcast.7 mph100%29.94 "Hg10 mi
2:55 am52 °FOvercast.7 mph100%29.95 "Hg10 mi
2:35 am52 °FLight rain. Overcast.7 mph100%29.95 "Hg10 mi
2:15 am52 °FOvercast.5 mph100%29.95 "Hg10 mi
1:55 am52 °FOvercast.8 mph100%29.95 "Hg10 mi
1:35 am52 °FOvercast.3 mph100%29.98 "Hg10 mi
1:15 am52 °FHeavy rain. Overcast.7 mph100%29.97 "Hg5 mi
12:55 am52 °FLight rain. Overcast.5 mph100%29.99 "Hg10 mi
12:35 am52 °FDrizzle. Overcast.7 mph100%29.99 "Hg10 mi
11:55 pm
Mon, Apr 24
52 °FOvercast.7 mph100%30.00 "Hg10 mi
11:35 pm52 °FOvercast.7 mph100%30.01 "Hg10 mi
11:15 pm52 °FOvercast.7 mph100%30.01 "Hg10 mi
10:35 pm52 °FOvercast.6 mph100%30.03 "Hg10 mi
10:15 pm52 °FLight rain. Overcast.7 mph100%30.03 "Hg7 mi
Weather by CustomWeather, © 2017

See weather overviewHow to use our weather pages